This is the latest recevied weather packets stored in our database for station/object IZ8QAD-10. If no packets are shown the sender has not sent any weather packets the latest 10 day(s).
| Time | Temp. | Humidity | Pressure | Rain* | Wind** | Luminosity | Snow |
|---|---|---|---|---|---|---|---|
| 1777524715 | 29.44° C | 36% | 969.4 hPa | - | - | - | - |
| 1777522915 | 29.44° C | 35% | 969.2 hPa | - | - | - | - |
| 1777521115 | 30° C | 35% | 969.3 hPa | - | - | - | - |
| 1777519349 | 30° C | 35% | 969.5 hPa | - | - | - | - |
| 1777519314 | 30° C | 35% | 969.5 hPa | - | - | - | - |
| 1777517514 | 30° C | 34% | 969.2 hPa | - | - | - | - |
| 1777515714 | 30° C | 35% | 969.3 hPa | - | - | - | - |
| 1777513914 | 30° C | 35% | 969.2 hPa | - | - | - | - |
| 1777512114 | 30.56° C | 34% | 968.7 hPa | - | - | - | - |
| 1777510314 | 30.56° C | 34% | 968.7 hPa | - | - | - | - |
| 1777508513 | 30.56° C | 33% | 968.9 hPa | - | - | - | - |
| 1777506713 | 30.56° C | 32% | 968.7 hPa | - | - | - | - |
| 1777504913 | 30.56° C | 32% | 969.1 hPa | - | - | - | - |
| 1777503113 | 30.56° C | 31% | 969 hPa | - | - | - | - |
| 1777501313 | 30° C | 32% | 969 hPa | - | - | - | - |
| 1777499513 | 30° C | 31% | 968.7 hPa | - | - | - | - |
| 1777497712 | 30.56° C | 30% | 968.7 hPa | - | - | - | - |
| 1777495912 | 30.56° C | 31% | 969 hPa | - | - | - | - |
| 1777494112 | 30.56° C | 30% | 969.2 hPa | - | - | - | - |
| 1777492312 | 30.56° C | 30% | 968.9 hPa | - | - | - | - |
| 1777490512 | 30.56° C | 29% | 968.9 hPa | - | - | - | - |
| 1777488711 | 31.67° C | 31% | 968.1 hPa | - | - | - | - |
| 1777486911 | 31.67° C | 30% | 968 hPa | - | - | - | - |
| 1777485110 | 32.78° C | 28% | 967.7 hPa | - | - | - | - |
| 1777483310 | 31.11° C | 29% | 967.6 hPa | - | - | - | - |
* Rain since midnight (hover to see other rain measurements)
** Current wind speed in m/s (hover to see current wind gust speed)